Viroqua, WI

11:28 AM CDT on August 19, 2018 (GMT -0500)
Viroqua

Weather History for KY51 - March, 2018

Change the Weather History Date:

Tuesday, March 13, 2018

  Actual Average (WUND) Record (WUND)
Temperature  
Mean Temperature 28 °F -  
Max Temperature 32 °F - - (-1)
Min Temperature 23 °F - - (-1)
Degree Days  
Heating Degree Days 38    
Moisture  
Dew Point 17 °F    
Average Humidity 65    
Maximum Humidity 83    
Minimum Humidity 47    
Precipitation  
Precipitation 0.00 in - - ()
Sea Level Pressure  
Sea Level Pressure 30.22 in    
Wind  
Wind Speed 3 mph (NNW)    
Max Wind Speed 20 mph    
Max Gust Speed 25 mph    
Visibility 10 miles    
Events      
Averages and records for this station are not official NWS values.
T = Trace of Precipitation, MM = Missing Value Source: NWS Daily Summary

Daily Weather History Graph

Daily Weather History Graph

Search for Another Location

Airport or City:

Astronomy

Mar. 13, 2018 Rise Set
Actual Time 7:19 AM CDT 7:07 PM CDT
Civil Twilight 6:50 AM CDT 7:36 PM CDT
Nautical Twilight 6:17 AM CDT 8:09 PM CDT
Astronomical Twilight 5:43 AM CDT 8:43 PM CDT
Moon 5:23 AM CDT (3/13) 3:21 PM CDT (3/13)
Length of Visible Light 12h 45m
Length of Day
11h 48m
Waning Crescent, 14% of the Moon is Illuminated
Mar 13
Waning Crescent
Mar 17
New
Mar 24
First Quarter
Mar 31
Full
Apr 8
Last Quarter

Hourly Weather History & Observations

Time (CDT) Temp. Windchill Dew Point Humidity Pressure Visibility Wind Dir Wind Speed Gust Speed Precip Events Conditions
12:15 AM 27.1 °F - 21.9 °F 81% 30.20 in 10.0 mi Calm Calm - N/A   Clear
12:35 AM 26.6 °F - 21.7 °F 82% 30.20 in 10.0 mi Calm Calm - N/A   Clear
12:55 AM 26.6 °F - 21.7 °F 82% 30.20 in 10.0 mi Calm Calm - N/A   Scattered Clouds
1:15 AM 26.8 °F - 22.1 °F 83% 30.20 in 10.0 mi Calm Calm - N/A   Mostly Cloudy
1:35 AM 26.6 °F - 21.9 °F 82% 30.20 in 10.0 mi Calm Calm - N/A   Mostly Cloudy
1:55 AM 27.3 °F - 22.5 °F 82% 30.20 in 10.0 mi Calm Calm - N/A   Overcast
2:15 AM 27.3 °F - 22.5 °F 82% 30.20 in 10.0 mi Calm Calm - N/A   Overcast
2:35 AM 27.1 °F - 22.3 °F 82% 30.20 in 10.0 mi Calm Calm - N/A   Overcast
2:55 AM 27.0 °F - 21.4 °F 79% 30.20 in 10.0 mi Calm Calm - N/A   Mostly Cloudy
3:15 AM 27.5 °F - 20.8 °F 76% 30.19 in 10.0 mi Calm Calm - N/A   Mostly Cloudy
3:35 AM 26.2 °F - 20.3 °F 78% 30.18 in 10.0 mi Calm Calm - N/A   Scattered Clouds
3:55 AM 26.2 °F - 19.4 °F 75% 30.18 in 10.0 mi Calm Calm - N/A   Clear
4:15 AM 26.2 °F - 18.9 °F 74% 30.18 in 10.0 mi Calm Calm - N/A   Clear
4:35 AM 26.4 °F - 18.3 °F 71% 30.18 in 10.0 mi Calm Calm - N/A   Clear
4:55 AM 26.4 °F - 18.1 °F 71% 30.18 in 10.0 mi Calm Calm - N/A   Clear
5:15 AM 25.9 °F - 18.0 °F 72% 30.19 in 10.0 mi Calm Calm - N/A   Clear
5:35 AM 25.9 °F - 18.0 °F 72% 30.20 in 10.0 mi Calm Calm - N/A   Scattered Clouds
5:55 AM 26.6 °F - 18.3 °F 71% 30.20 in 10.0 mi Calm Calm - N/A   Mostly Cloudy
6:15 AM 27.1 °F - 18.5 °F 70% 30.20 in 10.0 mi Calm Calm - N/A   Overcast
6:35 AM 26.4 °F 16.0 °F 16.5 °F 66% 30.21 in 10.0 mi North 11.5 mph 16.1 mph N/A   Mostly Cloudy
6:55 AM 25.7 °F 17.1 °F 15.6 °F 66% 30.21 in 10.0 mi North 8.1 mph - N/A   Scattered Clouds
7:15 AM 25.7 °F 15.7 °F 14.9 °F 64% 30.22 in 10.0 mi North 10.4 mph 17.3 mph N/A   Clear
7:35 AM 24.6 °F - 14.9 °F 67% 30.22 in 10.0 mi Calm Calm - N/A   Clear
7:55 AM 25.2 °F - 15.3 °F 66% 30.22 in 10.0 mi Calm Calm - N/A   Clear
8:15 AM 25.7 °F - 15.6 °F 66% 30.23 in 10.0 mi Calm Calm - N/A   Clear
8:35 AM 26.4 °F - 16.2 °F 65% 30.23 in 10.0 mi Calm Calm - N/A   Clear
8:55 AM 27.0 °F - 17.1 °F 66% 30.24 in 10.0 mi Calm Calm - N/A   Clear
9:15 AM 27.3 °F - 17.2 °F 66% 30.24 in 10.0 mi Calm Calm - N/A   Clear
9:35 AM 27.7 °F - 17.8 °F 66% 30.24 in 10.0 mi Calm Calm - N/A   Clear
9:55 AM 28.2 °F - 18.0 °F 65% 30.24 in 10.0 mi Calm Calm - N/A   Scattered Clouds
10:15 AM 28.8 °F 17.5 °F 17.8 °F 64% 30.24 in 10.0 mi NNW 15.0 mph 19.6 mph N/A   Scattered Clouds
10:35 AM 28.8 °F 17.9 °F 18.3 °F 65% 30.24 in 10.0 mi NNW 13.8 mph 20.7 mph N/A   Mostly Cloudy
10:55 AM 29.7 °F 19.6 °F 18.1 °F 62% 30.24 in 10.0 mi NNW 12.7 mph 16.1 mph N/A   Mostly Cloudy
11:15 AM 29.8 °F 22.2 °F 17.6 °F 60% 30.24 in 10.0 mi North 8.1 mph 18.4 mph N/A   Scattered Clouds
11:35 AM 29.8 °F 18.9 °F 16.9 °F 59% 30.24 in 10.0 mi North 15.0 mph 20.7 mph N/A   Scattered Clouds
11:55 AM 30.7 °F 21.4 °F 17.8 °F 59% 30.23 in 10.0 mi NNW 11.5 mph 19.6 mph N/A   Clear
12:15 PM 30.6 °F 20.7 °F 16.9 °F 57% 30.23 in 10.0 mi NNW 12.7 mph 18.4 mph N/A   Clear
12:35 PM 31.1 °F 19.7 °F 16.9 °F 56% 30.23 in 10.0 mi NNW 17.3 mph 24.2 mph N/A   Scattered Clouds
12:55 PM 31.6 °F 24.4 °F 16.5 °F 54% 30.23 in 10.0 mi North 8.1 mph 20.7 mph N/A   Scattered Clouds
1:15 PM 31.6 °F 23.7 °F 16.0 °F 52% 30.23 in 10.0 mi NNW 9.2 mph 18.4 mph N/A   Scattered Clouds
1:35 PM 31.8 °F 22.8 °F 13.6 °F 47% 30.22 in 10.0 mi North 11.5 mph 20.7 mph N/A   Scattered Clouds
1:55 PM 31.8 °F 20.6 °F 13.8 °F 47% 30.23 in 10.0 mi North 17.3 mph 25.3 mph N/A   Clear
2:15 PM 31.8 °F 21.0 °F 14.5 °F 49% 30.22 in 10.0 mi North 16.1 mph 21.9 mph N/A   Clear
2:35 PM 32.0 °F 22.5 °F 15.4 °F 51% 30.22 in 10.0 mi North 12.7 mph 24.2 mph N/A   Scattered Clouds
2:55 PM 32.0 °F 20.8 °F 16.2 °F 52% 30.22 in 10.0 mi NNW 17.3 mph 21.9 mph N/A   Mostly Cloudy
3:15 PM 31.5 °F 21.8 °F 16.0 °F 53% 30.22 in 10.0 mi North 12.7 mph 19.6 mph N/A   Mostly Cloudy
3:35 PM 31.6 °F 19.7 °F 16.5 °F 54% 30.22 in 10.0 mi NNW 19.6 mph 24.2 mph N/A   Mostly Cloudy
3:55 PM 32.0 °F 22.5 °F 16.7 °F 53% 30.22 in 10.0 mi NNW 12.7 mph 19.6 mph N/A   Scattered Clouds
4:15 PM 31.3 °F 23.9 °F 15.8 °F 53% 30.22 in 10.0 mi NNW 8.1 mph 19.6 mph N/A   Scattered Clouds
4:35 PM 31.6 °F 26.0 °F 16.3 °F 53% 30.22 in 10.0 mi NNW 5.8 mph 19.6 mph N/A   Mostly Cloudy
4:55 PM 30.7 °F 20.0 °F 15.8 °F 54% 30.22 in 10.0 mi NNW 15.0 mph 23.0 mph N/A   Scattered Clouds
5:15 PM 31.1 °F - 15.1 °F 52% 30.22 in 10.0 mi Calm Calm - N/A   Clear
5:35 PM 31.8 °F 21.4 °F 15.8 °F 52% 30.22 in 10.0 mi NNW 15.0 mph - N/A   Scattered Clouds
5:55 PM 31.1 °F - 15.8 °F 53% 30.23 in 10.0 mi Calm Calm - N/A   Scattered Clouds
6:15 PM 30.7 °F - 15.6 °F 54% 30.23 in 10.0 mi Calm Calm - N/A   Clear
6:35 PM 30.0 °F - 15.4 °F 55% 30.23 in 10.0 mi Calm Calm - N/A   Clear
6:55 PM 29.3 °F 25.6 °F 15.3 °F 56% 30.23 in 10.0 mi NNW 3.5 mph - N/A   Clear
7:15 PM 28.2 °F - 15.8 °F 60% 30.23 in 10.0 mi Calm Calm - N/A   Clear
7:35 PM 27.5 °F - 15.3 °F 60% 30.23 in 10.0 mi Calm Calm - N/A   Clear
7:55 PM 27.5 °F - 15.1 °F 60% 30.23 in 10.0 mi Calm Calm - N/A   Clear
8:15 PM 27.0 °F - 14.9 °F 60% 30.23 in 10.0 mi Calm Calm - N/A   Clear
8:35 PM 25.9 °F - 15.3 °F 64% 30.23 in 10.0 mi Calm Calm - N/A   Clear
8:55 PM 25.2 °F - 15.4 °F 67% 30.23 in 10.0 mi Calm Calm - N/A   Clear
9:15 PM 25.2 °F - 16.7 °F 70% 30.22 in 10.0 mi Calm Calm - N/A   Clear
9:35 PM 24.1 °F - 15.3 °F 69% 30.22 in 10.0 mi Calm Calm - N/A   Clear
9:55 PM 24.6 °F - 15.8 °F 69% 30.22 in 10.0 mi Calm Calm - N/A   Clear
10:15 PM 25.0 °F - 15.4 °F 67% 30.22 in 10.0 mi Calm Calm - N/A   Clear
10:35 PM 24.6 °F - 15.4 °F 68% 30.21 in 10.0 mi Calm Calm - N/A   Clear
10:55 PM 23.7 °F - 15.6 °F 71% 30.21 in 10.0 mi Calm Calm - N/A   Clear
11:15 PM 23.9 °F - 14.7 °F 68% 30.21 in 10.0 mi Calm Calm - N/A   Clear
11:35 PM 23.9 °F - 14.9 °F 69% 30.20 in 10.0 mi Calm Calm - N/A   Clear
11:55 PM 23.5 °F - 14.4 °F 68% 30.20 in 10.0 mi Calm Calm - N/A   Clear